Regional Weather Roundup
Issued by NWS

Home | Current Version | Previous Version | Graphics & Text | Print | Product List | Glossary On
Versions: 1 2 3 4 5 6 7 8 9 10 11 12 13 14 15 16 17 18 19 20 21 22 23 24 25 26 27 28 29 30 31 32 33 34 35 36 37 38 39 40 41 42 43 44 45 46 47 48 49 50
000
ASUS45 KSLC 060510
RWRUT

UTAH REGIONAL WEATHER ROUNDUP
NATIONAL WEATHER SERVICE SALT LAKE CITY UT
1100 PM MDT SUN JUL 05 2015

UTZ001>011-023>025-060600-

NORTHERN UTAH

CITY           SKY/WX    TMP DP  RH WIND       PRES   REMARKS
BRIGHAM CITY   CLEAR     71  60  68 W3        30.03F
HILL AFB       CLEAR     74  56  54 N3        30.06R
LOGAN          CLEAR     64  57  78 CALM      30.05S
OGDEN          CLEAR     72  59  63 NW6       30.04R
PROVO AIRPORT  CLEAR     77  57  50 NW12      30.04R
SALT LAKE CITY CLEAR     78  65  63 NW10      30.02R
VERNAL         PTCLDY    69  54  58 E5        30.11R
WENDOVER       CLEAR     79  52  38 N10       30.04R
HEBER CITY     CLEAR     64  52  63 CALM      30.12R
WEST JORDAN    CLEAR     75  57  53 W5        30.06R

$$

UTZ012>022-026-027-060600-

SOUTHERN/CENTRAL UTAH

CITY           SKY/WX    TMP DP  RH WIND       PRES   REMARKS
BLANDING       CLOUDY    64  54  71 E6        30.25S
BRYCE CANYON   MOCLDY    59  47  64 NW5       30.30R
CEDAR CITY     MOCLDY    72  46  39 S8        30.15R
DELTA          PTCLDY    79  46  30 NE12      30.03R
HANKSVILLE     CLEAR     70  59  68 SE5       30.05R
MILFORD        MOCLDY    76  46  34 S14       30.07R
MOAB/CYNLANDS  MOCLDY    76  56  49 NE9       30.04R
PRICE          PTCLDY    72  42  34 NE9       30.12R
ST GEORGE      CLEAR     82  48  30 SE10      29.99R
KANAB          CLOUDY    73  52  46 SW7       30.19R

$$

REGIONAL REPORTS     COLORADO/ARIZONA

CITY           SKY/WX    TMP DP  RH WIND       PRES   REMARKS
CRAIG, CO      PTCLDY    55  53  93 CALM      30.21R
GRAND JUNCTION MOCLDY    65  59  81 SE8       30.11R
RIFLE          PTCLDY    63  57  81 CALM      30.16R
MONTROSE       PTCLDY    62  56  80 CALM      30.20R
CORTEZ         CLEAR     67  54  63 W15G26    30.21R
PAGE, AZ       MOCLDY    85  44  23 W5        30.05R
GRAND CANYON   CLOUDY    61  54  77 S5        30.29R
KINGMAN        CLOUDY    80  56  43 SW8       30.07R
FLAGSTAFF      CLOUDY    60  53  77 W9        30.35R

$$

REGIONAL REPORTS    NEVADA/IDAHO/WYOMING

CITY           SKY/WX    TMP DP  RH WIND       PRES   REMARKS
LAS VEGAS, NV  CLOUDY    91  50  24 N15G22    29.90R
ELY            PTCLDY    71  30  21 CALM      30.19R
ELKO           CLEAR     69  42  37 SW10      30.14R
POCATELLO, ID  CLEAR     73  49  42 S12       30.05R
BURLEY         PTCLDY    63  54  72 S7        30.03R
EVANSTON, WY   PTCLDY    58  52  80 CALM      30.24R
ROCK SPRINGS   MOCLDY    59  56  89 NE7       30.22R
KEMMERER       MOCLDY    57  50  77 NW8       30.25S

$$



USA.gov is the U.S. government's official web portal to all federal, state and local government web resources and services.